METEOR 2-6 DEB, 43298

Orbit data source: Space-Track

METEOR 2-6 DEB, 43298 is space debris in LEO originally from a launch on Tue, 09 Sep 1980 UTC launched from the Plesetsk Missile And Space Complex (PKMTR). Debris objects in space refer to the collection of defunct objects orbiting the Earth. Examples of debris include non-operational satellites, rocket bodies, and fragments generated from explosions, collisions, or faulty payload assembly.

Loading next visibility...
METEOR 2-6 DEB details
Identifier
43298, 1980-073S
Orbit
LEO
Last TLE update2 months ago
Origin
Flag of CISKVR (CIS)
ManufacturerUnknown
MissionSpacecraft
Bus & MotorUnknown
MassUnknown
Launch date (UTC)
1980-09-09 (44 years ago)
Launch vehicleUnknown
Launch site
Plesetsk Missile And Space Complex (PKMTR)
Object type
Payload
Rocket body
Debris
Shape & HBRUnknown
Radar Cross SectionSmall (<0.1 m²)

Expand to show TLE details & history

TLE from 2 months ago
0 METEOR 2-6 DEB
1 43298U 80073S   24287.24401138  .00019749  00000-0  64615-2 0  9994
2 43298  81.2106 260.2378 0010782 327.6201  32.4322 14.38355592551689
Epoch: 2024-10-13T05:51Z
Definitive object data (Epoch: 2024-10-13T05:51:22.583Z)
Latitude-0.00005°
Longitude150.10541°
Altitude760.375 km
Speed7.478 km/s
True Right ascension17h 20m 57s
True Declination0° 00' 00"
Sunlit
Object was in daylight at TLE epoch
Visualization TLE readout
Latitude64.08976°
Longitude-124.91742°
Altitude757.325 km
Speed7.486 km/s
Apparent Right ascension06h 35m 17s
Apparent Declination40° 29' 20"
Sunlit
Object is in full shadow
Visualization observer readout
Local Sidereal Time20:58:23
Azimuth26.446° NE
Elevation-3.245°
Doppler factor1
Orbital elements
Apogee altitude768.772 km
Perigee altitude753.377 km
Semi-major axis7,139.212 km
Eccentricity0.0010782
Inclination81.2106°
RAAN260.2378°
Arg. of periapsis327.6201°
True anomaly32.49854°
Mean anomaly32.4322°
Eccentric anomaly32.46536°
Mean motion3.59805 °/min
BSTAR0.0064615
Orbital period100.05 mins
Loading maneuver chart data...
Loading historical data...
Loading historical data...
Loading historical data...
Loading historical data...
Loading historical data...
Loading historical data...
Loading historical data...

METEOR 2-6 DEB Visibility forecast

Observer location: undefined°, undefined

Span
Click to sort rows by Start time (UTC) header in descending order
Start Az.
Max El. time (UTC)
Max El. Az.
Max El.
End time (UTC)
End Az.
7 mins2024-12-26 23:18:22.724Z25.297° NE2024-12-26 23:21:22.724Z69.167° E22.393°2024-12-26 23:25:22.724Z124.101° SE
7 mins2024-12-27 00:59:22.724Z322.195° NNW2024-12-27 01:02:22.724Z269° W29.724°2024-12-27 01:06:22.724Z207.145° SW
5 mins2024-12-27 12:12:22.724Z118.618° SE2024-12-27 12:14:22.724Z86.851° E20.763°2024-12-27 12:17:22.724Z45.143° ENE
8 mins2024-12-27 13:51:22.724Z224.21° SW2024-12-27 13:54:22.724Z271.357° WNW30.919°2024-12-27 13:59:22.724Z352.01° N
|